�������l�o���
Date,Time,MP-1(��Sv/h),MP-2(��Sv/h),MP-3(��Sv/h),MP-4(��Sv/h),MP-5(��Sv/h),MP-6(��Sv/h),MP-7(��Sv/h),MP-8(��Sv/h),����,����(m/s),���J
2023/09/30,00:00,0.523,0.799,0.492,0.990,0.712,0.319,0.572,0.533,�k�k��,2.6,��
2023/09/30,00:10,0.523,0.798,0.491,0.987,0.711,0.319,0.572,0.532,�k�k��,2.2,��
2023/09/30,00:20,0.524,0.798,0.492,0.988,0.712,0.320,0.572,0.530,�k�k��,1.9,�L
2023/09/30,00:30,0.525,0.798,0.491,0.987,0.713,0.320,0.571,0.532,�k,0.9,�L
2023/09/30,00:40,0.524,0.798,0.490,0.988,0.713,0.320,0.573,0.532,�k�k��,1.2,�L
2023/09/30,00:50,0.525,0.799,0.491,0.990,0.712,0.321,0.573,0.532,���k��,1.1,�L
2023/09/30,01:00,0.525,0.797,0.492,0.989,0.713,0.320,0.573,0.531,�k�k��,2.0,�L
2023/09/30,01:10,0.524,0.800,0.492,0.989,0.713,0.319,0.572,0.532,�k�k��,2.0,�L
2023/09/30,01:20,0.524,0.797,0.491,0.990,0.712,0.320,0.574,0.532,�k�k��,1.7,��
2023/09/30,01:30,0.525,0.799,0.491,0.989,0.712,0.321,0.572,0.530,�k�k��,1.7,��
2023/09/30,01:40,0.524,0.797,0.492,0.987,0.712,0.320,0.574,0.532,�k,1.7,��
2023/09/30,01:50,0.523,0.799,0.491,0.989,0.713,0.319,0.572,0.532,�k�k��,1.7,��
2023/09/30,02:00,0.525,0.797,0.490,0.989,0.712,0.320,0.572,0.532,�k,2.3,�L
2023/09/30,02:10,0.524,0.797,0.492,0.989,0.712,0.320,0.572,0.532,�k�k��,3.1,��
2023/09/30,02:20,0.524,0.796,0.491,0.991,0.712,0.319,0.572,0.532,�k�k��,2.5,��
2023/09/30,02:30,0.524,0.798,0.490,0.988,0.712,0.321,0.573,0.531,�k,2.2,��
2023/09/30,02:40,0.524,0.798,0.491,0.989,0.712,0.320,0.573,0.532,�k,2.6,��
2023/09/30,02:50,0.525,0.797,0.490,0.989,0.713,0.320,0.572,0.532,�k,2.9,��
2023/09/30,03:00,0.525,0.800,0.491,0.988,0.711,0.321,0.574,0.533,�k�k��,3.2,��
2023/09/30,03:10,0.525,0.798,0.492,0.990,0.711,0.319,0.572,0.533,�k�k��,3.0,��
2023/09/30,03:20,0.524,0.798,0.491,0.989,0.712,0.320,0.574,0.532,�k�k��,2.8,��
2023/09/30,03:30,0.525,0.799,0.491,0.989,0.714,0.320,0.573,0.532,�k�k��,2.9,��
2023/09/30,03:40,0.525,0.798,0.490,0.990,0.711,0.319,0.573,0.532,�k��,3.7,��
2023/09/30,03:50,0.524,0.796,0.491,0.991,0.713,0.320,0.573,0.534,�k�k��,3.2,��
2023/09/30,04:00,0.524,0.798,0.491,0.991,0.712,0.319,0.573,0.532,�k��,3.9,�L
2023/09/30,04:10,0.524,0.799,0.492,0.991,0.712,0.319,0.574,0.532,�k�k��,4.0,�L
2023/09/30,04:20,0.524,0.798,0.490,0.990,0.714,0.319,0.574,0.531,�k�k��,4.0,��
2023/09/30,04:30,0.523,0.797,0.492,0.989,0.711,0.319,0.574,0.531,�k�k��,3.6,��
2023/09/30,04:40,0.525,0.799,0.490,0.991,0.712,0.320,0.573,0.533,�k��,2.9,�L
2023/09/30,04:50,0.524,0.798,0.491,0.988,0.712,0.318,0.573,0.532,�k��,2.5,��
2023/09/30,05:00,0.525,0.800,0.491,0.991,0.713,0.320,0.574,0.532,�k��,2.9,��
2023/09/30,05:10,0.525,0.797,0.491,0.989,0.715,0.319,0.573,0.533,�k��,2.8,��
2023/09/30,05:20,0.524,0.800,0.491,0.992,0.712,0.320,0.573,0.533,�k��,3.3,��
2023/09/30,05:30,0.525,0.799,0.490,0.991,0.711,0.320,0.574,0.532,�k��,3.0,��
2023/09/30,05:40,0.526,0.799,0.492,0.991,0.713,0.320,0.574,0.532,�k��,3.5,��
2023/09/30,05:50,0.524,0.800,0.492,0.990,0.713,0.320,0.573,0.533,�k��,5.1,��
2023/09/30,06:00,0.526,0.797,0.491,0.992,0.712,0.320,0.572,0.532,�k��,4.6,��
2023/09/30,06:10,0.524,0.799,0.491,0.989,0.714,0.320,0.573,0.532,�k�k��,4.4,��
2023/09/30,06:20,0.523,0.796,0.492,0.990,0.713,0.319,0.574,0.531,�k��,3.6,��
2023/09/30,06:30,0.524,0.799,0.492,0.991,0.712,0.320,0.573,0.532,�k��,2.3,��
2023/09/30,06:40,0.524,0.797,0.491,0.990,0.713,0.322,0.572,0.533,�k��,3.3,��
2023/09/30,06:50,0.524,0.800,0.491,0.990,0.710,0.321,0.573,0.532,�k��,3.1,��
2023/09/30,07:00,0.525,0.799,0.492,0.990,0.712,0.319,0.574,0.532,�k��,3.7,��
2023/09/30,07:10,0.523,0.798,0.492,0.989,0.712,0.320,0.573,0.531,�k��,3.6,��
2023/09/30,07:20,0.525,0.797,0.492,0.990,0.713,0.320,0.574,0.532,�k�k��,2.3,��
2023/09/30,07:30,0.524,0.798,0.493,0.992,0.712,0.318,0.572,0.532,�k�k��,3.0,��
2023/09/30,07:40,0.524,0.797,0.492,0.990,0.711,0.321,0.573,0.533,�k�k��,3.1,��
2023/09/30,07:50,0.526,0.797,0.492,0.991,0.713,0.319,0.574,0.532,�k�k��,2.6,��
2023/09/30,08:00,0.524,0.798,0.492,0.990,0.713,0.320,0.574,0.532,�k�k��,2.2,��
2023/09/30,08:10,0.525,0.798,0.493,0.992,0.712,0.320,0.572,0.533,�k�k��,2.6,��
2023/09/30,08:20,0.526,0.799,0.491,0.990,0.713,0.320,0.574,0.532,�k��,3.4,��
2023/09/30,08:30,0.525,0.799,0.494,0.990,0.711,0.320,0.573,0.531,�k��,4.5,��
2023/09/30,08:40,0.524,0.799,0.492,0.991,0.712,0.320,0.572,0.532,�k�k��,4.4,��
2023/09/30,08:50,0.524,0.797,0.492,0.988,0.712,0.319,0.574,0.533,�k�k��,3.7,��
2023/09/30,09:00,0.525,0.799,0.493,0.992,0.714,0.319,0.571,0.531,�k�k��,4.2,��
2023/09/30,09:10,0.525,0.799,0.492,0.990,0.712,0.319,0.573,0.532,�k�k��,2.8,��
2023/09/30,09:20,0.525,0.799,0.494,0.990,0.710,0.320,0.573,0.533,�k��,3.5,��
2023/09/30,09:30,0.525,0.799,0.494,0.991,0.711,0.321,0.572,0.532,�k�k��,4.2,��
2023/09/30,09:40,0.526,0.798,0.491,0.989,0.713,0.319,0.572,0.533,�k�k��,4.8,�L
2023/09/30,09:50,0.526,0.799,0.493,0.992,0.714,0.320,0.572,0.530,�k��,4.3,��
2023/09/30,10:00,0.525,0.799,0.493,0.991,0.713,0.319,0.572,0.531,�k��,2.9,��
2023/09/30,10:10,0.525,0.798,0.492,0.992,0.713,0.320,0.572,0.530,�k��,2.8,��
2023/09/30,10:20,0.525,0.801,0.492,0.990,0.712,0.320,0.573,0.532,�k�k��,1.7,��
2023/09/30,10:30,0.524,0.798,0.493,0.992,0.713,0.320,0.572,0.532,�k��,2.0,��
2023/09/30,10:40,0.524,0.795,0.493,0.992,0.711,0.318,0.573,0.532,�k�k��,0.9,��
2023/09/30,10:50,0.525,0.798,0.491,0.991,0.711,0.319,0.574,0.533,�k��,0.6,��
2023/09/30,11:00,0.524,0.798,0.491,0.990,0.712,0.318,0.573,0.531,�k�k��,1.7,��
2023/09/30,11:10,0.526,0.799,0.490,0.992,0.709,0.320,0.572,0.532,�쓌,1.9,��
2023/09/30,11:20,0.525,0.797,0.490,0.989,0.713,0.318,0.573,0.531,���쓌,1.5,��
2023/09/30,11:30,0.526,0.797,0.489,0.991,0.712,0.320,0.573,0.532,�쓌,1.2,��
2023/09/30,11:40,0.525,0.795,0.491,0.991,0.713,0.321,0.571,0.531,��,1.1,��
2023/09/30,11:50,0.523,0.798,0.490,0.989,0.711,0.321,0.573,0.531,��,2.0,��
2023/09/30,12:00,0.524,0.798,0.490,0.990,0.712,0.321,0.573,0.531,�k��,1.5,��
2023/09/30,12:10,0.525,0.798,0.491,0.990,0.714,0.321,0.574,0.532,��쓌,1.5,��
2023/09/30,12:20,0.525,0.799,0.492,0.992,0.711,0.320,0.572,0.531,�쓌,1.5,��
2023/09/30,12:30,0.526,0.799,0.490,0.989,0.712,0.322,0.572,0.532,�쓌,2.3,��
2023/09/30,12:40,0.525,0.799,0.492,0.989,0.713,0.320,0.573,0.531,�쓌,1.4,��
2023/09/30,12:50,0.525,0.799,0.491,0.989,0.714,0.319,0.572,0.531,�쓌,2.0,��
2023/09/30,13:00,0.527,0.799,0.491,0.991,0.714,0.319,0.573,0.532,���k��,1.5,��
2023/09/30,13:10,0.524,0.801,0.490,0.990,0.713,0.319,0.572,0.532,���쓌,1.9,��
2023/09/30,13:20,0.526,0.798,0.490,0.990,0.713,0.320,0.572,0.530,��,2.2,��
2023/09/30,13:30,0.528,0.800,0.490,0.988,0.715,0.320,0.572,0.532,��,2.3,��
2023/09/30,13:40,0.525,0.799,0.491,0.991,0.714,0.320,0.572,0.531,�k��,2.6,��
2023/09/30,13:50,0.526,0.800,0.490,0.990,0.713,0.320,0.574,0.531,���k��,2.6,��
2023/09/30,14:00,0.526,0.798,0.490,0.990,0.713,0.319,0.572,0.530,���k��,2.2,��
2023/09/30,14:10,0.525,0.798,0.489,0.990,0.713,0.320,0.571,0.531,�k��,2.2,��
2023/09/30,14:20,0.526,0.797,0.489,0.993,0.713,0.320,0.572,0.532,�k,2.0,��
2023/09/30,14:30,0.525,0.799,0.490,0.992,0.711,0.321,0.572,0.530,�k�k��,2.3,��
2023/09/30,14:40,0.524,0.799,0.491,0.991,0.713,0.321,0.572,0.530,�k�k��,1.9,��
2023/09/30,14:50,0.524,0.802,0.492,0.991,0.715,0.320,0.573,0.532,�k,1.9,��
2023/09/30,15:00,0.524,0.801,0.492,0.993,0.715,0.320,0.572,0.530,�k,2.0,��
2023/09/30,15:10,0.525,0.801,0.493,0.992,0.713,0.321,0.572,0.530,�k,2.0,��
2023/09/30,15:20,0.525,0.800,0.493,0.992,0.714,0.320,0.573,0.531,�k�k��,1.9,��
2023/09/30,15:30,0.525,0.802,0.492,0.993,0.716,0.321,0.573,0.532,�k�k��,2.2,��
2023/09/30,15:40,0.527,0.802,0.494,0.993,0.714,0.322,0.574,0.532,�k��,2.0,��
2023/09/30,15:50,0.527,0.801,0.493,0.994,0.716,0.321,0.574,0.531,�k�k��,2.6,��
2023/09/30,16:00,0.528,0.801,0.492,0.996,0.715,0.321,0.574,0.534,�k�k��,2.6,��
2023/09/30,16:10,0.527,0.801,0.491,0.993,0.716,0.320,0.574,0.532,�k,2.3,�L
2023/09/30,16:20,0.526,0.801,0.491,0.994,0.716,0.321,0.575,0.533,�k�k��,2.0,�L
2023/09/30,16:30,0.525,0.802,0.491,0.994,0.715,0.320,0.575,0.532,�k,2.9,�L
2023/09/30,16:40,0.526,0.801,0.492,0.995,0.715,0.321,0.574,0.531,�k�k��,2.6,�L
2023/09/30,16:50,0.527,0.801,0.493,0.993,0.715,0.321,0.575,0.532,�k,2.8,��
2023/09/30,17:00,0.527,0.801,0.492,0.995,0.715,0.321,0.575,0.532,�k,3.1,��
2023/09/30,17:10,0.527,0.802,0.492,0.993,0.716,0.322,0.575,0.534,�k,3.5,��
2023/09/30,17:20,0.526,0.802,0.493,0.993,0.715,0.322,0.576,0.533,�k,3.8,��
2023/09/30,17:30,0.526,0.803,0.493,0.995,0.715,0.322,0.575,0.534,�k�k��,4.3,��
2023/09/30,17:40,0.525,0.803,0.493,0.992,0.715,0.322,0.575,0.533,�k�k��,4.6,��
2023/09/30,17:50,0.526,0.803,0.493,0.992,0.716,0.321,0.576,0.533,�k�k��,5.5,��
2023/09/30,18:00,0.526,0.802,0.494,0.994,0.716,0.322,0.575,0.532,�k�k��,4.5,��
2023/09/30,18:10,0.526,0.802,0.493,0.993,0.716,0.322,0.574,0.533,�k�k��,5.2,��
2023/09/30,18:20,0.528,0.803,0.492,0.993,0.716,0.322,0.574,0.532,�k�k��,5.5,��
2023/09/30,18:30,0.525,0.802,0.494,0.992,0.714,0.321,0.574,0.534,�k�k��,5.5,��
2023/09/30,18:40,0.527,0.800,0.495,0.994,0.718,0.320,0.574,0.533,�k�k��,4.8,��
2023/09/30,18:50,0.527,0.803,0.493,0.994,0.716,0.321,0.574,0.534,�k�k��,6.1,��
2023/09/30,19:00,0.528,0.803,0.493,0.994,0.716,0.322,0.574,0.534,�k�k��,6.6,��
2023/09/30,19:10,0.528,0.803,0.495,0.995,0.715,0.322,0.574,0.533,�k�k��,5.3,��
2023/09/30,19:20,0.527,0.802,0.493,0.994,0.717,0.322,0.572,0.533,�k�k��,5.1,��
2023/09/30,19:30,0.527,0.803,0.493,0.995,0.718,0.322,0.573,0.533,�k�k��,4.9,��
2023/09/30,19:40,0.525,0.800,0.493,0.995,0.714,0.321,0.573,0.532,�k�k��,4.6,��
2023/09/30,19:50,0.526,0.801,0.493,0.994,0.717,0.321,0.573,0.534,�k�k��,4.5,��
2023/09/30,20:00,0.527,0.801,0.493,0.996,0.716,0.322,0.572,0.534,�k�k��,4.3,��
2023/09/30,20:10,0.526,0.802,0.493,0.994,0.715,0.321,0.573,0.532,�k�k��,4.0,��
2023/09/30,20:20,0.528,0.800,0.493,0.994,0.716,0.320,0.572,0.534,�k��,3.6,��
2023/09/30,20:30,0.527,0.803,0.492,0.994,0.716,0.321,0.573,0.534,�k��,2.8,��
2023/09/30,20:40,0.528,0.802,0.493,0.996,0.716,0.320,0.574,0.533,�k��,2.6,��
2023/09/30,20:50,0.526,0.803,0.494,0.995,0.715,0.322,0.573,0.534,�k�k��,2.6,��
2023/09/30,21:00,0.526,0.803,0.493,0.992,0.717,0.321,0.572,0.533,�k�k��,3.2,��
2023/09/30,21:10,0.528,0.801,0.494,0.992,0.715,0.322,0.574,0.534,�k�k��,2.8,��
2023/09/30,21:20,0.527,0.802,0.494,0.996,0.715,0.321,0.574,0.532,�k�k��,3.1,��
2023/09/30,21:30,0.528,0.801,0.493,0.995,0.715,0.321,0.574,0.533,�k��,3.2,��
2023/09/30,21:40,0.527,0.803,0.495,0.996,0.717,0.322,0.574,0.534,�k�k��,3.3,��
2023/09/30,21:50,0.528,0.802,0.495,0.996,0.716,0.324,0.574,0.533,�k�k��,2.6,��
2023/09/30,22:00,0.529,0.802,0.495,0.996,0.717,0.322,0.574,0.533,�k�k��,2.6,��
2023/09/30,22:10,0.527,0.802,0.493,0.995,0.716,0.322,0.574,0.533,�k,2.3,��
2023/09/30,22:20,0.526,0.803,0.494,0.996,0.717,0.321,0.574,0.535,�k,2.9,��
2023/09/30,22:30,0.527,0.801,0.494,0.996,0.716,0.322,0.575,0.534,�k�k��,3.7,��
2023/09/30,22:40,0.527,0.804,0.493,0.995,0.717,0.323,0.574,0.533,�k�k��,3.0,��
2023/09/30,22:50,0.528,0.802,0.495,0.996,0.718,0.322,0.573,0.534,�k,2.5,��
2023/09/30,23:00,0.527,0.800,0.493,0.995,0.716,0.323,0.575,0.534,�k�k��,1.5,��
2023/09/30,23:10,0.527,0.803,0.493,0.995,0.717,0.322,0.574,0.534,�k,1.7,��
2023/09/30,23:20,0.528,0.802,0.494,0.995,0.717,0.323,0.574,0.533,�k,1.5,��
2023/09/30,23:30,0.527,0.802,0.494,0.995,0.717,0.322,0.575,0.533,�k,1.2,��
2023/09/30,23:40,0.527,0.802,0.494,0.994,0.715,0.322,0.574,0.534,-,CALM,��
2023/09/30,23:50,0.525,0.803,0.494,0.995,0.718,0.322,0.574,0.532,���k��,0.6,��
